Trinidad, CO

6:38 PM MDT on August 17, 2017 (GMT -0600)
Stokes

Weather History for KTAD - September, 2012

Change the Weather History Date:

Friday, September 14, 2012

  Actual Average Record
Temperature  
Mean Temperature 57 °F 65 °F  
Max Temperature 70 °F 80 °F 94 °F (1956)
Min Temperature 43 °F 50 °F 30 °F (1993)
Degree Days  
Heating Degree Days 8 3  
Month to date heating degree days 29 22  
Since 1 July heating degree days 29 32  
Cooling Degree Days 0 3  
Month to date cooling degree days 78 54  
Year to date cooling degree days 1163  
Growing Degree Days 6 (Base 50)    
Moisture  
Dew Point 40 °F    
Average Humidity 62    
Maximum Humidity 93    
Minimum Humidity 30    
Precipitation  
Precipitation 0.00 in 0.04 in 0.94 in (1979)
Month to date precipitation 0.58  
Snow  
Snow 0.00 in - - ()
Month to date snowfall 0.0  
Snow Depth 0.00 in    
Sea Level Pressure  
Sea Level Pressure 30.34 in    
Wind  
Wind Speed 7 mph (WNW)    
Max Wind Speed 13 mph    
Max Gust Speed 15 mph    
Visibility 10 miles    
Events      
T = Trace of Precipitation, MM = Missing Value Source: NWS Daily Summary

Daily Weather History Graph

Daily Weather History Graph

Search for Another Location

Airport or City:

Trip Planner

Search our weather history database for the weather conditions in past years. The results will help you decide how hot, cold, wet, or windy it might be!

Date:

Astronomy

Sep. 14, 2012 Rise Set
Actual Time 6:39 AM MDT 7:05 PM MDT
Civil Twilight 6:12 AM MDT 7:31 PM MDT
Nautical Twilight 5:42 AM MDT 8:02 PM MDT
Astronomical Twilight 5:10 AM MDT 8:33 PM MDT
Moon 5:07 AM MDT (9/14) 6:03 PM MDT (9/14)
Length of Visible Light 13h 18m
Length of Day
12h 26m
Waning Crescent, 2% of the Moon is Illuminated
Sep 14
Waning Crescent
Sep 15
New
Sep 22
First Quarter
Sep 29
Full
Oct 8
Last Quarter

Hourly Weather History & Observations

Time (MDT) Temp. Windchill Dew Point Humidity Pressure Visibility Wind Dir Wind Speed Gust Speed Precip Events Conditions
12:54 AM 46.9 °F - 44.1 °F 90% 30.42 in 10.0 mi West 6.9 mph - N/A   Partly Cloudy
1:54 AM 46.9 °F - 43.0 °F 86% 30.40 in 10.0 mi WSW 9.2 mph - N/A   Clear
2:54 AM 46.0 °F 41.4 °F 42.1 °F 86% 30.38 in 10.0 mi West 9.2 mph - N/A   Clear
3:54 AM 46.0 °F 41.4 °F 41.0 °F 83% 30.38 in 10.0 mi West 9.2 mph - N/A   Clear
4:54 AM 45.0 °F 40.1 °F 41.0 °F 86% 30.38 in 10.0 mi West 9.2 mph - N/A   Clear
5:54 AM 45.0 °F 39.7 °F 39.9 °F 82% 30.39 in 10.0 mi West 10.4 mph - N/A   Clear
6:54 AM 44.1 °F 39.0 °F 39.0 °F 82% 30.40 in 10.0 mi WSW 9.2 mph - N/A   Clear
7:54 AM 48.0 °F - 42.1 °F 80% 30.40 in 10.0 mi West 6.9 mph - N/A   Clear
8:54 AM 54.0 °F - 43.0 °F 66% 30.40 in 10.0 mi NW 8.1 mph - N/A   Clear
9:54 AM 59.0 °F - 45.0 °F 60% 30.40 in 10.0 mi Calm Calm - N/A   Clear
10:54 AM 62.1 °F - 43.0 °F 50% 30.39 in 10.0 mi East 6.9 mph - N/A   Clear
11:54 AM 63.0 °F - 42.1 °F 46% 30.38 in 10.0 mi East 6.9 mph - N/A   Partly Cloudy
12:54 PM 66.0 °F - 41.0 °F 40% 30.34 in 10.0 mi East 5.8 mph - N/A   Scattered Clouds
1:54 PM 69.1 °F - 39.0 °F 33% 30.32 in 10.0 mi NNW 8.1 mph - N/A   Clear
2:54 PM 68.0 °F - 37.0 °F 32% 30.30 in 10.0 mi East 6.9 mph - N/A   Clear
3:54 PM 69.1 °F - 37.0 °F 31% 30.27 in 10.0 mi Variable 4.6 mph - N/A   Clear
4:54 PM 68.0 °F - 37.0 °F 32% 30.27 in 10.0 mi Variable 3.5 mph - N/A   Clear
5:54 PM 68.0 °F - 36.0 °F 31% 30.26 in 10.0 mi ENE 5.8 mph - N/A   Clear
6:54 PM 64.0 °F - 37.0 °F 37% 30.28 in 10.0 mi East 4.6 mph - N/A   Clear
7:54 PM 60.1 °F - 39.0 °F 46% 30.28 in 10.0 mi East 4.6 mph - N/A   Clear
8:54 PM 57.0 °F - 39.9 °F 53% 30.27 in 10.0 mi East 4.6 mph - N/A   Clear
9:54 PM 55.0 °F - 37.9 °F 53% 30.27 in 10.0 mi Calm Calm - N/A   Clear
10:54 PM 48.9 °F - 41.0 °F 74% 30.28 in 10.0 mi West 9.2 mph - N/A   Clear
11:54 PM 48.9 °F - 39.0 °F 69% 30.27 in 10.0 mi West 9.2 mph - N/A   Clear